Regional Weather Roundup
Issued by NWS

Home | Current Version | Previous Version | Text Only | Print | Product List | Glossary Off
Versions: 1 2 3 4 5 6 7 8 9 10 11 12 13 14 15 16 17 18 19 20 21 22 23 24 25 26 27 28 29 30 31 32 33 34 35 36 37 38 39 40 41 42 43 44 45 46 47 48 49 50

000
ASUS44 KMEG 230400
RWRTN
TENNESSEE HOURLY STATE WEATHER ROUNDUP
NATIONAL WEATHER SERVICE MEMPHIS TN
1100 PM CDT FRI JUL 22 2016

TNZ002-004-019-021-049-052-054-088>092-230500-
WEST TENNESSEE

CITY           SKY/WX    TMP DP  RH WIND       PRES   REMARKS
MEMPHIS INTL   MOCLDY    84  71  65 SE6       30.01S
NWS MEMPHIS      N/A     76 N/A N/A MISG        N/A
JACKSON        CLOUDY    78  72  81 CALM      30.02S
DYERSBURG      CLOUDY    75  72  88 MISG      30.01F
PARIS          CLOUDY    75  73  94 CALM      30.05R
$$

TNZ008-025-027-028-033-062-065-066-230500-
NORTH MIDDLE TENNESSEE

CITY           SKY/WX    TMP DP  RH WIND       PRES   REMARKS
NASHVILLE      MOCLDY    80  70  71 CALM      30.04S
CLARKSVILLE    CLOUDY    77  71  82 NE3       30.03F
COOKEVILLE     CLEAR     77  77 100 CALM      30.06S
CROSSVILLE     CLOUDY    78  73  84 CALM      30.12S
$$

TNZ061-075-076-078-094-096-097-230500-
SOUTH MIDDLE TENNESSEE

CITY           SKY/WX    TMP DP  RH WIND       PRES   REMARKS
TULLAHOMA      CLEAR     81  73  78 CALM      30.07F
WINCHESTER     CLEAR     79  73  83 CALM      30.06F
MCMINNVILLE    CLEAR     77  77 100 CALM      30.07F
COLUMBIA       CLEAR     79  79 100 CALM      30.02F
SHELBYVILLE    CLEAR     81  81 100 E3        30.04F HX  91
$$

TNZ017-018-042-046-047-230500-
NORTHEAST TENNESSEE

CITY           SKY/WX    TMP DP  RH WIND       PRES   REMARKS
TRI CITIES     MOCLDY    74  68  81 CALM      30.07S
$$

TNZ012-013-036-069-073-074-230500-
CENTRAL EAST TENNESSEE

CITY           SKY/WX    TMP DP  RH WIND       PRES   REMARKS
KNOXVILLE      CLOUDY    84  71  65 W10       30.04R
OAK RIDGE      CLOUDY    83  72  69 CALM      30.06R
GATLINBURG     PTCLDY    77  70  78 CALM      30.04S
$$

TNZ083-085-099-230500-
SOUTHEAST TENNESSEE

CITY           SKY/WX    TMP DP  RH WIND       PRES   REMARKS
CHATTANOOGA    CLOUDY    80  70  71 CALM      30.05S
$$

SKY/WX REPORTED AS FAIR MEANS FEW OR NO CLOUDS BELOW
12 THOUSAND FEET.





USA.gov is the U.S. government's official web portal to all federal, state and local government web resources and services.